Погода в Огиблянке

Россия / Белгородская область     50°57′55″N   37°16′25″E
темп.,
°C
ветер,
м/с
пор.,
м/с
влажн.,
%
обл.,
%
осадки,
мм/ч
давл.,
гПа
погр.,
м
8 марта, пн
пн800:00−1з91592100 0.4 1007931
03:00−1зюз7138997 0.6 1007659
06:00−1зюз8139299 0.1 1006748
09:00−1зюз81293100 0.6 1006895
12:00−2сз5889100 1.6 1007640
15:000зсз5874100 1.7 10071063
18:00−2з368282 0.1 1008240
21:00−3зсз378674 0.3 1010333
9 марта, вт
вт900:00−5зсз368856 0.0 1010235
03:00−5зсз359059 0.0 1011256
06:00−6сз4789100 0.0 1012388
09:00−7ссз4687100 0.1 1014403
12:00−6ссз5677100 0.1 1015774
15:00−5ссз6776100 0.1 1017900
18:00−7ссз6777100 0.1 1019840
21:00−9ссз587879 0.1 1022645
10 марта, ср
ср1000:00−10ссз468421 0.0 1023421
03:00−10сз358759 0.0 1024382
06:00−12сз468878 0.0 1026307
09:00−12ссз358258 0.0 1027286
12:00−9ссз346842 0.0 1027647
15:00−8сз346360 0.0 1027771
18:00−9с338094 0.0 1027393
21:00−10св458293 0.1 1028372
11 марта, чт
чт1100:00−13св4673100 0.0 1030336
03:00−14всв466698 0.0 1031335
06:00−15всв456831 0.0 1032303
09:00−14всв356621 0.0 1033327
12:00−10в34454 0.0 1033605
15:00−8в23392 0.0 1033874
18:00−8всв23450 0.0 1032708
21:00−10в35660 0.0 1033299
12 марта, пт
пт1200:00−10юв35650 0.0 1033217
03:00−11ююв36670 0.0 1032278
06:00−11ююв48670 0.0 1032281
09:00−10ю6105633 0.0 1031507
12:00−7ю71145100 0.0 1029706
15:00−4ю71140100 0.0 1028792
18:00−4ю81340100 0.0 1025755
21:00−4ю81541100 0.0 1025818